Dewpoint
51 51 52 52 52 52 52 53 53 53 54 54 55 55 55 55 55 47 41 41 44 55 57 33 26 23 25 26 35 34 37 35 34 31 28 27 25 24 23 20 21 21 34 46 48
51 51 51 51 52 52 52 52 53 53 54 55 55 55 55 54 51 47 48 53 54 57 31 28 25 21 20 22 31 32 31 36 36 35 32 31 30 30 23 24 22 21 38 42 46
51 51 51 51 51 51 52 52 52 53 54 54 55 55 55 54 46 37 52 57 55 53 37 30 23 21 20 19 20 30 29 30 34 35 34 32 31 31 28 22 24 23 28 39 42
51 51 51 51 51 51 52 52 52 53 53 54 54 55 56 52 34 35 55 58 57 49 40 32 18 16 20 18 19 16 20 29 32 34 34 33 33 32 32 31 30 30 30 33 40
51 52 52 51 51 51 51 52 52 53 53 53 54 55 52 45 40 46 58 56 47 37 37 26 20 16 10 17 18 17 17 16 18 22 27 32 32 33 32 34 34 32 32 32 36
51 51 50 50 50 51 52 52 52 53 53 53 54 56 49 41 25 31 44 37 35 24 23 23 21 21 19 15 14 13 13 15 17 15 16 17 23 29 32 35 35 34 34 34 34
51 51 51 51 51 51 52 52 53 53 53 54 55 51 43 38 22 21 24 22 22 23 25 25 25 23 22 20 20 18 15 15 14 17 18 18 18 19 26 31 34 34 34 34 35
52 51 50 51 51 51 51 52 52 52 53 55 54 48 41 36 23 21 17 17 20 20 22 21 24 24 23 22 19 15 14 11 14 18 18 18 16 18 22 28 31 32 34 35 37
51 50 50 50 51 52 52 52 52 52 54 54 49 46 39 36 24 19 17 17 22 23 25 21 22 22 22 19 15 14 11 10 10 10 11 12 16 17 19 21 27 27 33 35 36
52 52 50 50 51 52 52 52 52 52 50 47 44 39 37 22 21 18 17 23 23 23 26 26 22 20 20 19 14 11 8 7 7 8 4 2 2 6 15 17 21 25 27 34 36
52 52 52 52 52 52 50 43 41 43 44 41 38 33 26 22 24 18 22 23 24 24 23 21 17 16 17 17 16 15 15 15 15 15 14 14 13 13 14 13 14 21 30 30 32
52 52 52 52 52 52 48 42 32 32 31 31 29 26 23 21 17 19 21 21 22 18 16 16 15 17 16 16 17 17 16 15 16 16 13 14 13 14 14 14 14 14 20 30 33
52 52 52 52 51 49 42 37 34 35 31 28 28 19 21 17 18 19 20 22 18 16 17 17 15 14 15 16 15 16 15 16 16 16 15 14 14 14 14 14 14 15 15 24 35
52 51 51 51 47 43 37 35 36 36 29 24 15 16 16 17 18 19 20 20 20 17 17 15 11 12 19 18 17 17 22 22 18 13 11 14 9 12 13 13 14 15 14 18 26
51 51 51 50 45 41 33 36 37 37 27 21 16 21 17 15 17 18 20 20 18 16 15 12 11 20 19 22 28 26 25 20 19 15 11 10 10 10 15 12 12 14 17 20 24
51 50 50 47 47 44 37 37 40 34 27 14 16 16 16 16 16 18 17 20 18 15 14 16 18 18 28 27 25 26 27 24 19 12 9 9 9 8 9 10 13 14 15 19 24
51 50 48 44 42 41 37 39 32 31 20 17 17 17 16 16 17 16 16 15 15 18 18 20 16 19 25 25 21 20 26 24 18 13 12 12 17 20 25 18 12 13 15 14 16
49 48 48 43 41 41 39 35 29 28 21 21 19 19 18 17 16 16 16 15 22 21 22 17 16 16 20 16 14 17 23 24 18 15 15 16 16 15 23 26 26 25 20 13 15
46 46 46 47 46 42 36 33 31 23 20 21 20 20 18 19 18 18 18 16 19 23 23 23 22 23 19 15 14 14 20 21 23 25 25 23 20 22 23 26 32 34 23 18 19
43 45 44 44 42 41 35 33 29 21 18 20 21 24 22 21 20 19 19 24 25 26 28 26 24 24 22 24 22 25 24 19 30 20 19 18 19 20 35 38 38 38 38 33 27
44 43 43 39 40 39 34 32 28 22 21 21 23 24 24 22 21 20 20 21 29 28 29 27 27 25 24 22 25 27 28 31 33 30 23 19 17 37 38 39 39 37 39 40 36
43 37 41 39 34 41 35 28 32 26 25 24 26 26 26 26 24 23 23 26 29 31 28 33 32 25 23 21 29 29 27 31 28 24 26 25 23 38 39 39 40 38 41 44 37
41 39 43 41 35 33 32 29 29 24 26 26 26 28 29 28 27 28 27 28 32 32 33 34 29 24 21 21 32 28 25 26 33 34 28 24 21 35 37 37 39 41 44 45 43
42 37 38 37 35 32 31 29 28 29 26 25 27 27 29 28 28 27 26 28 29 27 37 37 31 28 24 25 28 26 24 25 25 25 24 22 21 32 37 37 39 41 43 43 41
42 36 34 31 30 31 33 31 28 29 30 31 29 26 25 29 28 27 27 28 29 32 34 34 32 31 29 28 26 24 22 25 22 22 24 27 28 34 38 39 40 42 44 41 36
35 34 35 34 33 32 34 31 28 27 28 28 29 29 29 28 28 26 28 30 31 31 32 36 33 32 30 28 25 22 25 28 25 25 25 26 29 37 39 41 41 38 37 36 34
40 40 36 35 32 29 29 27 28 30 30 30 29 28 29 29 30 32 32 32 32 31 32 37 34 32 27 26 26 23 22 26 29 28 27 29 34 34 38 37 35 33 35 37 43
Lifted_Index
12 12 12 11 11 11 10 10 10 9 9 8 7 7 7 8 9 9 9 8 8 8 9 9 9 8 8 6 3 1 2 3 3 2 2 3 3 4 4 3 2 1 -0 -1 -2
12 12 12 11 11 11 10 10 10 9 9 8 8 7 7 8 8 8 8 8 9 9 9 9 9 8 7 6 4 3 3 4 3 2 1 2 2 3 3 3 2 1 0 -1 -2
12 12 12 12 11 11 10 10 10 9 9 8 8 8 8 7 7 6 7 8 9 9 9 9 9 8 7 7 6 5 5 4 3 2 1 1 1 2 3 2 2 2 1 0 -1
12 12 12 11 11 11 10 10 10 9 9 9 8 8 7 7 6 5 6 8 8 8 9 9 9 8 7 7 7 6 6 5 4 2 1 1 1 1 2 2 2 2 2 2 1
12 12 12 12 11 11 10 10 10 10 9 9 8 8 7 6 6 6 7 7 8 8 8 9 9 8 8 7 7 7 7 6 5 4 3 2 1 1 2 2 2 2 2 3 3
12 12 12 12 11 11 10 10 10 10 9 9 8 7 7 7 7 8 8 8 8 9 9 9 9 9 8 8 8 7 7 7 7 6 5 3 2 2 2 2 2 2 2 2 2
12 12 12 12 12 11 11 10 10 9 9 8 8 7 7 7 8 9 9 9 9 9 9 9 9 9 9 8 8 7 7 7 7 6 6 5 4 4 4 3 2 2 1 1 1
11 11 12 12 12 11 11 10 10 9 8 7 7 7 7 7 8 9 9 10 9 9 9 9 9 9 9 8 8 7 6 5 6 6 6 5 5 5 5 4 3 2 1 0 0
11 11 12 12 12 11 11 10 9 8 7 6 6 6 6 7 8 9 9 9 9 9 9 9 9 9 8 7 6 5 5 4 5 6 5 5 5 6 6 5 4 3 2 1 0
11 11 11 11 11 11 10 9 8 7 6 5 5 5 6 7 8 9 9 9 9 8 8 8 8 8 7 6 5 5 5 5 5 6 6 5 6 6 6 6 5 4 3 2 1
10 10 10 10 10 10 8 7 7 6 6 5 5 6 6 7 8 8 8 8 8 8 8 7 7 7 7 6 6 6 6 6 7 6 6 6 6 7 7 7 6 5 5 4 3
9 10 10 9 9 8 7 7 7 7 7 6 6 6 7 7 8 8 8 8 8 8 7 7 7 7 7 7 7 7 7 7 7 7 6 6 7 7 7 7 7 6 6 5 4
9 9 10 9 8 7 7 7 8 8 7 7 6 7 7 7 7 7 7 7 7 7 7 7 7 7 7 7 7 6 6 6 6 6 6 6 6 6 7 7 7 7 7 6 5
8 9 9 8 7 6 6 7 7 7 6 6 6 7 7 7 6 6 7 7 7 7 7 7 7 7 6 6 6 6 5 5 5 5 5 5 6 7 7 7 7 7 7 6 5
8 9 9 7 6 6 6 7 6 5 4 5 6 6 6 6 6 6 6 6 6 7 6 6 5 5 5 4 4 4 3 3 3 3 4 5 5 7 8 7 7 7 7 6 5
9 10 9 7 6 6 6 6 5 4 4 5 5 5 5 5 5 5 5 5 5 5 4 3 3 3 2 2 2 1 1 1 1 1 3 3 4 6 7 8 8 8 7 5 4
10 10 9 7 6 6 6 5 3 3 4 5 5 5 4 3 3 4 4 3 3 3 3 2 2 2 1 1 1 0 -0 -0 -0 0 1 2 2 4 6 7 7 8 7 5 3
10 9 8 7 6 6 5 4 3 3 4 4 4 4 3 2 2 2 2 2 1 2 2 2 2 2 1 1 1 0 -0 -0 -0 0 1 1 1 2 3 4 5 6 5 4 3
9 7 6 6 6 6 5 4 3 4 4 5 4 4 3 2 2 2 2 1 1 2 2 2 2 1 1 0 0 0 0 -0 -0 0 1 1 1 1 1 1 2 3 3 3 2
7 6 6 6 6 6 5 4 4 4 5 5 4 3 3 3 2 2 2 2 2 2 2 2 2 1 0 -0 -0 0 0 -0 -0 0 0 0 1 0 0 -0 0 1 2 2 2
7 6 6 6 6 5 4 4 4 5 5 5 4 3 3 3 2 2 2 2 2 2 2 2 1 1 0 -0 -0 -0 0 0 -0 -0 0 0 0 -0 0 0 1 1 2 2 1
7 6 6 7 6 5 5 5 5 5 5 4 4 3 3 2 2 2 2 2 2 2 2 2 2 1 1 0 -0 -0 0 0 0 0 0 0 0 0 0 1 2 2 2 2 1
6 6 6 7 6 6 5 5 5 5 5 4 3 3 3 2 2 2 2 2 2 2 2 2 2 2 1 1 0 0 0 0 0 0 0 -0 -0 0 1 2 2 2 2 2 1
7 7 7 7 7 6 6 6 5 5 4 4 4 3 3 2 2 2 3 2 2 2 2 2 2 2 1 1 1 1 1 1 0 0 -0 -0 -0 -0 1 2 2 2 2 2 2
8 8 8 8 8 7 6 6 5 5 4 4 4 4 3 3 3 3 3 3 2 2 2 1 1 1 1 1 1 1 1 0 0 -0 -0 -0 -0 -0 1 2 3 3 3 3 2
9 9 9 9 8 7 6 6 6 5 5 5 5 4 4 4 3 3 3 3 2 2 1 1 1 1 1 1 1 1 1 0 -0 -0 -0 -0 -0 -0 0 1 2 3 3 2 2
10 10 10 9 8 7 7 6 6 6 6 6 5 5 4 4 4 3 3 3 3 2 1 1 1 1 1 1 1 1 1 0 -0 -0 -0 -0 -1 -0 -0 1 1 2 2 2 1